Flag for Germany Weather past 2 weeks in Wunstorf, Lower Saxony, Germany

Now
50 °F

Cool.


Feels Like: 47 °F
Forecast: 38 / 57 °F
Wind: 8 mph from North

Location: Wunstorf Airport

Current Time: Apr 18, 2015 at 10:07:21 PM

Latest Report: Apr 18, 2015 at 9:20 PM


Visibility: 4 mi

Pressure: 30.24 "Hg

Humidity: 50%

Dew point: 32 °F

Location of WunstorfLocation

Historic Weather in Wunstorf — Graph

°F

Wunstorf temperature yesterday

Maximum temperature yesterday: 55 °F (at 6:20 PM)
Minimum temperature yesterday: 39 °F (at 5:20 AM)
Average temperature yesterday: 46 °F

Past Weeks' High & Low Weather Summary

 TemperatureHumidityPressure
High72 °F (Apr 15, 3:20 PM)100% (Apr 9, 2:20 AM)30.57 "Hg (Apr 9, 2:20 AM)
Low30 °F (Apr 5, 6:20 AM)30% (Apr 5, 4:20 PM)29.89 "Hg (Apr 15, 6:20 PM)
Average48 °F65%30.23 "Hg
* Reported Apr 3 8:20 PM — Apr 18 8:20 PM, Wunstorf, Weather by CustomWeather, © 2015

Note: Actual official high and low records may vary slightly from our data, if they occured in-between our weather recording intervals... More about our weather records

Advertising

Wunstorf weather history for previous 24 hours

 ConditionsComfort  
Time TempWeatherWind HumidityBarometerVisibility
8:20 PM
Sat, Apr 18
52 °FCool.5 mph41%30.24 "Hg2 mi
7:20 PM55 °FRefreshingly cool.7 mph36%30.24 "Hg4 mi
6:20 PM55 °FRefreshingly cool.10 mph36%30.24 "Hg4 mi
5:20 PM57 °FRefreshingly cool.10 mph33%30.27 "Hg4 mi
4:20 PM55 °FRefreshingly cool.8 mph36%30.27 "Hg4 mi
3:20 PM54 °FCool.8 mph35%30.30 "Hg4 mi
2:20 PM52 °FCool.5 mph38%30.33 "Hg4 mi
1:20 PM52 °FCool.5 mph38%30.33 "Hg4 mi
12:20 PM52 °FCool.9 mph41%30.33 "Hg4 mi
11:20 AM50 °FCool.8 mph50%30.33 "Hg5 mi
10:20 AM46 °FCool.5 mph66%30.33 "Hg6 mi
9:20 AM45 °FQuite cool.2 mph71%30.33 "Hg6 mi
8:20 AM41 °FQuite cool.5 mph76%30.30 "Hg6 mi
7:20 AM37 °FChilly.3 mph81%30.30 "Hg6 mi
6:20 AM37 °FChilly.6 mph81%30.27 "Hg3 mi
5:20 AM37 °FChilly.5 mph81%30.27 "Hg3 mi
4:20 AM39 °FChilly.6 mph75%30.24 "Hg3 mi
3:20 AM39 °FChilly.5 mph81%30.24 "Hg3 mi
2:20 AM43 °FQuite cool.6 mph76%30.24 "Hg3 mi
1:20 AM45 °FQuite cool.7 mph71%30.21 "Hg3 mi
12:20 AM46 °FCool.8 mph66%30.18 "Hg3 mi
11:20 PM
Fri, Apr 17
46 °FCool.8 mph66%30.15 "Hg4 mi
10:20 PM46 °FCool.9 mph62%30.15 "Hg4 mi
Weather by CustomWeather, © 2015

See weather overviewHow to use our weather pages